User: anonymous   Login
Location: Kitchener
(43.2612°N, 80.5078°W)
Time: 13:58:23
(UTC+01:00)
Language:

Iridium 57 - Orbit

View from above orbital plane
View from above orbital plane
View from above satellite
View from above satellite

Ground track
Ground track

The orbit data is extracted from the following two-line orbital elements,

1 25273U 98019B   14302.12536804  .00000371  00000-0  12546-3 0  9548
2 25273 086.3953 329.4391 0002205 107.3367 252.8070 14.34220378868170
Epoch (UTC): 29 October 2014 03:00:31
Eccentricity: 0.0002205
inclination: 86.3953°
perigee height: 776 km
apogee height: 779 km
right ascension of ascending node: 329.4391°
argument of perigee: 107.3367°
revolutions per day: 14.34220378
mean anomaly at epoch: 252.8070°
orbit number at epoch: 86817

The dashed part of the orbit path shows where the satellite is in the earth's shadow,  

DLR